Location: Home
(42.5358°N, 72.7383°W)
Time: 12:47:58
(UTC-05:00)

Altair - Visible Passes

Search period start: 06 December 2021 00:00
Search period end: 16 December 2021 00:00
Orbit: 1502 x 1682 km, 47.2° (Epoch: 05 December)

Date Brightness Start Highest point End Pass type
(mag) Time Alt. Az. Time Alt. Az. Time Alt. Az.
06 Dec 7.5 17:31:16 10° W 17:40:38 66° N 17:47:18 21° ENE visible
06 Dec 7.3 19:36:34 10° WNW 19:45:20 81° WNW 19:45:20 81° WNW visible
06 Dec 9.4 21:41:42 10° WNW 21:43:21 16° WNW 21:43:21 16° WNW visible
07 Dec 7.6 17:05:59 10° W 17:15:23 66° N 17:23:38 14° E visible
07 Dec 7.2 19:11:21 10° WNW 19:20:43 86° NNE 19:21:40 75° E visible
07 Dec 9.1 21:16:27 10° WNW 21:19:42 23° W 21:19:42 23° W visible
08 Dec 7.6 16:40:42 10° W 16:50:10 67° N 16:59:21 10° E visible
08 Dec 7.3 18:46:08 10° WNW 18:55:32 83° NNE 18:58:04 54° ESE visible
08 Dec 8.7 20:51:12 10° WNW 20:56:06 32° W 20:56:06 32° W visible
09 Dec 7.3 18:20:56 10° WNW 18:30:20 80° NNE 18:34:33 38° ESE visible
09 Dec 8.2 20:25:58 10° WNW 20:32:35 42° WSW 20:32:35 42° WSW visible
10 Dec 7.4 17:55:42 10° WNW 18:05:08 78° NNE 18:11:05 25° E visible
10 Dec 7.9 20:00:44 10° WNW 20:09:09 52° SW 20:09:09 52° SW visible
11 Dec 7.4 17:30:28 10° WNW 17:39:56 75° NNE 17:47:45 16° E visible
11 Dec 7.7 19:35:30 10° WNW 19:44:29 56° SW 19:45:48 52° S visible
11 Dec 9.6 21:42:40 10° W 21:43:52 12° W 21:43:52 12° W visible
12 Dec 7.5 17:05:14 10° WNW 17:14:43 73° NNE 17:23:55 10° E visible
12 Dec 7.7 19:10:17 10° WNW 19:19:22 60° SW 19:22:36 41° SSE visible
12 Dec 9.3 21:16:59 10° W 21:20:40 17° WSW 21:20:40 17° WSW visible
13 Dec 7.5 16:39:59 10° WNW 16:49:30 72° NNE 16:58:43 10° E visible
13 Dec 7.7 18:45:04 10° WNW 18:54:14 64° SW 18:59:33 28° SE visible
13 Dec 9.1 20:51:26 10° W 20:57:29 20° SW 20:57:39 20° SW visible
14 Dec 7.7 18:19:51 10° WNW 18:29:07 68° SSW 18:36:43 16° SE visible
14 Dec 9.0 20:25:56 10° W 20:32:29 22° SW 20:34:50 20° SSW visible
15 Dec 7.6 17:54:38 10° WNW 18:03:59 72° SSW 18:13:05 10° SE visible
15 Dec 9.0 20:00:30 10° W 20:07:27 25° SW 20:12:18 16° SSW visible
